Index of /20260430/WXO-DD/model_rdps/10km/18/011
Name Last modified Size Description
Parent Directory -
20260430T18Z_MSC_RDPS_AbsoluteVorticity_IsbL-0250_RLatLon0.09_PT011H.grib2 2026-04-30 20:41 503K
20260430T18Z_MSC_RDPS_AbsoluteVorticity_IsbL-0500_RLatLon0.09_PT011H.grib2 2026-04-30 20:41 556K
20260430T18Z_MSC_RDPS_AbsoluteVorticity_IsbL-0700_RLatLon0.09_PT011H.grib2 2026-04-30 20:41 624K
20260430T18Z_MSC_RDPS_AbsoluteVorticity_IsbL-0850_RLatLon0.09_PT011H.grib2 2026-04-30 20:41 770K
20260430T18Z_MSC_RDPS_AirTemp_AGL-120m_RLatLon0.09_PT011H.grib2 2026-04-30 20:41 368K
20260430T18Z_MSC_RDPS_AirTemp_AGL-2m_RLatLon0.09_PT011H.grib2 2026-04-30 20:41 624K
20260430T18Z_MSC_RDPS_AirTemp_AGL-40m_RLatLon0.09_PT011H.grib2 2026-04-30 20:41 402K
20260430T18Z_MSC_RDPS_AirTemp_AGL-80m_RLatLon0.09_PT011H.grib2 2026-04-30 20:41 392K
20260430T18Z_MSC_RDPS_AirTemp_IsbL-0001_RLatLon0.09_PT011H.grib2 2026-04-30 20:41 247K
20260430T18Z_MSC_RDPS_AirTemp_IsbL-0005_RLatLon0.09_PT011H.grib2 2026-04-30 20:41 280K
20260430T18Z_MSC_RDPS_AirTemp_IsbL-0010_RLatLon0.09_PT011H.grib2 2026-04-30 20:41 291K
20260430T18Z_MSC_RDPS_AirTemp_IsbL-0020_RLatLon0.09_PT011H.grib2 2026-04-30 20:41 304K
20260430T18Z_MSC_RDPS_AirTemp_IsbL-0030_RLatLon0.09_PT011H.grib2 2026-04-30 20:41 325K
20260430T18Z_MSC_RDPS_AirTemp_IsbL-0050_RLatLon0.09_PT011H.grib2 2026-04-30 20:41 303K
20260430T18Z_MSC_RDPS_AirTemp_IsbL-0100_RLatLon0.09_PT011H.grib2 2026-04-30 20:41 417K
20260430T18Z_MSC_RDPS_AirTemp_IsbL-0150_RLatLon0.09_PT011H.grib2 2026-04-30 20:41 421K
20260430T18Z_MSC_RDPS_AirTemp_IsbL-0175_RLatLon0.09_PT011H.grib2 2026-04-30 20:41 412K
20260430T18Z_MSC_RDPS_AirTemp_IsbL-0200_RLatLon0.09_PT011H.grib2 2026-04-30 20:41 416K
20260430T18Z_MSC_RDPS_AirTemp_IsbL-0225_RLatLon0.09_PT011H.grib2 2026-04-30 20:41 417K
20260430T18Z_MSC_RDPS_AirTemp_IsbL-0250_RLatLon0.09_PT011H.grib2 2026-04-30 20:41 425K
20260430T18Z_MSC_RDPS_AirTemp_IsbL-0275_RLatLon0.09_PT011H.grib2 2026-04-30 20:41 404K
20260430T18Z_MSC_RDPS_AirTemp_IsbL-0300_RLatLon0.09_PT011H.grib2 2026-04-30 20:41 410K
20260430T18Z_MSC_RDPS_AirTemp_IsbL-0350_RLatLon0.09_PT011H.grib2 2026-04-30 20:41 424K
20260430T18Z_MSC_RDPS_AirTemp_IsbL-0400_RLatLon0.09_PT011H.grib2 2026-04-30 20:41 425K
20260430T18Z_MSC_RDPS_AirTemp_IsbL-0450_RLatLon0.09_PT011H.grib2 2026-04-30 20:41 431K
20260430T18Z_MSC_RDPS_AirTemp_IsbL-0500_RLatLon0.09_PT011H.grib2 2026-04-30 20:41 407K
20260430T18Z_MSC_RDPS_AirTemp_IsbL-0550_RLatLon0.09_PT011H.grib2 2026-04-30 20:41 425K
20260430T18Z_MSC_RDPS_AirTemp_IsbL-0600_RLatLon0.09_PT011H.grib2 2026-04-30 20:41 446K
20260430T18Z_MSC_RDPS_AirTemp_IsbL-0650_RLatLon0.09_PT011H.grib2 2026-04-30 20:41 462K
20260430T18Z_MSC_RDPS_AirTemp_IsbL-0700_RLatLon0.09_PT011H.grib2 2026-04-30 20:41 378K
20260430T18Z_MSC_RDPS_AirTemp_IsbL-0750_RLatLon0.09_PT011H.grib2 2026-04-30 20:41 407K
20260430T18Z_MSC_RDPS_AirTemp_IsbL-0800_RLatLon0.09_PT011H.grib2 2026-04-30 20:41 445K
20260430T18Z_MSC_RDPS_AirTemp_IsbL-0850_RLatLon0.09_PT011H.grib2 2026-04-30 20:41 489K
20260430T18Z_MSC_RDPS_AirTemp_IsbL-0875_RLatLon0.09_PT011H.grib2 2026-04-30 20:41 507K
20260430T18Z_MSC_RDPS_AirTemp_IsbL-0900_RLatLon0.09_PT011H.grib2 2026-04-30 20:41 515K
20260430T18Z_MSC_RDPS_AirTemp_IsbL-0925_RLatLon0.09_PT011H.grib2 2026-04-30 20:41 515K
20260430T18Z_MSC_RDPS_AirTemp_IsbL-0950_RLatLon0.09_PT011H.grib2 2026-04-30 20:41 519K
20260430T18Z_MSC_RDPS_AirTemp_IsbL-0970_RLatLon0.09_PT011H.grib2 2026-04-30 20:41 512K
20260430T18Z_MSC_RDPS_AirTemp_IsbL-0985_RLatLon0.09_PT011H.grib2 2026-04-30 20:41 501K
20260430T18Z_MSC_RDPS_AirTemp_IsbL-1000_RLatLon0.09_PT011H.grib2 2026-04-30 20:41 484K
20260430T18Z_MSC_RDPS_AirTemp_IsbL-1015_RLatLon0.09_PT011H.grib2 2026-04-30 20:41 481K
20260430T18Z_MSC_RDPS_Albedo_Sfc_RLatLon0.09_PT011H.grib2 2026-04-30 20:41 158K
20260430T18Z_MSC_RDPS_CAPE_Sfc_RLatLon0.09_PT011H.grib2 2026-04-30 20:41 1.6M
20260430T18Z_MSC_RDPS_CIN_Sfc_RLatLon0.09_PT011H.grib2 2026-04-30 20:41 1.1M
20260430T18Z_MSC_RDPS_CloudWater_EAtm_RLatLon0.09_PT011H.grib2 2026-04-30 20:41 218K
20260430T18Z_MSC_RDPS_ConvectivePrecip-Accum_Sfc_RLatLon0.09_PT011H.grib2 2026-04-30 20:41 629K
20260430T18Z_MSC_RDPS_DewPointDepression_AGL-2m_RLatLon0.09_PT011H.grib2 2026-04-30 20:41 392K
20260430T18Z_MSC_RDPS_DewPointDepression_IsbL-0001_RLatLon0.09_PT011H.grib2 2026-04-30 20:41 193
20260430T18Z_MSC_RDPS_DewPointDepression_IsbL-0005_RLatLon0.09_PT011H.grib2 2026-04-30 20:41 193
20260430T18Z_MSC_RDPS_DewPointDepression_IsbL-0010_RLatLon0.09_PT011H.grib2 2026-04-30 20:41 193
20260430T18Z_MSC_RDPS_DewPointDepression_IsbL-0020_RLatLon0.09_PT011H.grib2 2026-04-30 20:41 193
20260430T18Z_MSC_RDPS_DewPointDepression_IsbL-0030_RLatLon0.09_PT011H.grib2 2026-04-30 20:41 193
20260430T18Z_MSC_RDPS_DewPointDepression_IsbL-0050_RLatLon0.09_PT011H.grib2 2026-04-30 20:41 79K
20260430T18Z_MSC_RDPS_DewPointDepression_IsbL-0100_RLatLon0.09_PT011H.grib2 2026-04-30 20:41 128K
20260430T18Z_MSC_RDPS_DewPointDepression_IsbL-0150_RLatLon0.09_PT011H.grib2 2026-04-30 20:41 150K
20260430T18Z_MSC_RDPS_DewPointDepression_IsbL-0175_RLatLon0.09_PT011H.grib2 2026-04-30 20:41 180K
20260430T18Z_MSC_RDPS_DewPointDepression_IsbL-0200_RLatLon0.09_PT011H.grib2 2026-04-30 20:41 218K
20260430T18Z_MSC_RDPS_DewPointDepression_IsbL-0225_RLatLon0.09_PT011H.grib2 2026-04-30 20:41 261K
20260430T18Z_MSC_RDPS_DewPointDepression_IsbL-0250_RLatLon0.09_PT011H.grib2 2026-04-30 20:41 302K
20260430T18Z_MSC_RDPS_DewPointDepression_IsbL-0275_RLatLon0.09_PT011H.grib2 2026-04-30 20:41 306K
20260430T18Z_MSC_RDPS_DewPointDepression_IsbL-0300_RLatLon0.09_PT011H.grib2 2026-04-30 20:41 325K
20260430T18Z_MSC_RDPS_DewPointDepression_IsbL-0350_RLatLon0.09_PT011H.grib2 2026-04-30 20:41 330K
20260430T18Z_MSC_RDPS_DewPointDepression_IsbL-0400_RLatLon0.09_PT011H.grib2 2026-04-30 20:41 340K
20260430T18Z_MSC_RDPS_DewPointDepression_IsbL-0450_RLatLon0.09_PT011H.grib2 2026-04-30 20:41 344K
20260430T18Z_MSC_RDPS_DewPointDepression_IsbL-0500_RLatLon0.09_PT011H.grib2 2026-04-30 20:41 345K
20260430T18Z_MSC_RDPS_DewPointDepression_IsbL-0550_RLatLon0.09_PT011H.grib2 2026-04-30 20:41 359K
20260430T18Z_MSC_RDPS_DewPointDepression_IsbL-0600_RLatLon0.09_PT011H.grib2 2026-04-30 20:41 376K
20260430T18Z_MSC_RDPS_DewPointDepression_IsbL-0650_RLatLon0.09_PT011H.grib2 2026-04-30 20:41 382K
20260430T18Z_MSC_RDPS_DewPointDepression_IsbL-0700_RLatLon0.09_PT011H.grib2 2026-04-30 20:41 393K
20260430T18Z_MSC_RDPS_DewPointDepression_IsbL-0750_RLatLon0.09_PT011H.grib2 2026-04-30 20:41 408K
20260430T18Z_MSC_RDPS_DewPointDepression_IsbL-0800_RLatLon0.09_PT011H.grib2 2026-04-30 20:41 438K
20260430T18Z_MSC_RDPS_DewPointDepression_IsbL-0850_RLatLon0.09_PT011H.grib2 2026-04-30 20:41 460K
20260430T18Z_MSC_RDPS_DewPointDepression_IsbL-0875_RLatLon0.09_PT011H.grib2 2026-04-30 20:41 464K
20260430T18Z_MSC_RDPS_DewPointDepression_IsbL-0900_RLatLon0.09_PT011H.grib2 2026-04-30 20:41 456K
20260430T18Z_MSC_RDPS_DewPointDepression_IsbL-0925_RLatLon0.09_PT011H.grib2 2026-04-30 20:41 445K
20260430T18Z_MSC_RDPS_DewPointDepression_IsbL-0950_RLatLon0.09_PT011H.grib2 2026-04-30 20:41 440K
20260430T18Z_MSC_RDPS_DewPointDepression_IsbL-0970_RLatLon0.09_PT011H.grib2 2026-04-30 20:41 430K
20260430T18Z_MSC_RDPS_DewPointDepression_IsbL-0985_RLatLon0.09_PT011H.grib2 2026-04-30 20:41 424K
20260430T18Z_MSC_RDPS_DewPointDepression_IsbL-1000_RLatLon0.09_PT011H.grib2 2026-04-30 20:41 417K
20260430T18Z_MSC_RDPS_DewPointDepression_IsbL-1015_RLatLon0.09_PT011H.grib2 2026-04-30 20:41 407K
20260430T18Z_MSC_RDPS_DewPoint_AGL-2m_RLatLon0.09_PT011H.grib2 2026-04-30 20:41 301K
20260430T18Z_MSC_RDPS_DownwardLongwaveRadiationFlux-Accum_Sfc_RLatLon0.09_PT011H.grib2 2026-04-30 20:41 451K
20260430T18Z_MSC_RDPS_DownwardShortwaveRadiationFlux-Accum_NTAtm_RLatLon0.09_PT011H.grib2 2026-04-30 20:41 125K
20260430T18Z_MSC_RDPS_DownwardShortwaveRadiationFlux-Accum_Sfc_RLatLon0.09_PT011H.grib2 2026-04-30 20:41 506K
20260430T18Z_MSC_RDPS_FreezingRain-Accum1h_Sfc_RLatLon0.09_PT011H.grib2 2026-04-30 20:41 33K
20260430T18Z_MSC_RDPS_FreezingRain-Accum_Sfc_RLatLon0.09_PT011H.grib2 2026-04-30 20:41 60K
20260430T18Z_MSC_RDPS_GeopotentialHeight_IsbL-0001_RLatLon0.09_PT011H.grib2 2026-04-30 20:41 233K
20260430T18Z_MSC_RDPS_GeopotentialHeight_IsbL-0005_RLatLon0.09_PT011H.grib2 2026-04-30 20:41 295K
20260430T18Z_MSC_RDPS_GeopotentialHeight_IsbL-0010_RLatLon0.09_PT011H.grib2 2026-04-30 20:41 297K
20260430T18Z_MSC_RDPS_GeopotentialHeight_IsbL-0020_RLatLon0.09_PT011H.grib2 2026-04-30 20:41 296K
20260430T18Z_MSC_RDPS_GeopotentialHeight_IsbL-0030_RLatLon0.09_PT011H.grib2 2026-04-30 20:41 298K
20260430T18Z_MSC_RDPS_GeopotentialHeight_IsbL-0050_RLatLon0.09_PT011H.grib2 2026-04-30 20:41 301K
20260430T18Z_MSC_RDPS_GeopotentialHeight_IsbL-0100_RLatLon0.09_PT011H.grib2 2026-04-30 20:41 279K
20260430T18Z_MSC_RDPS_GeopotentialHeight_IsbL-0150_RLatLon0.09_PT011H.grib2 2026-04-30 20:41 225K
20260430T18Z_MSC_RDPS_GeopotentialHeight_IsbL-0175_RLatLon0.09_PT011H.grib2 2026-04-30 20:41 259K
20260430T18Z_MSC_RDPS_GeopotentialHeight_IsbL-0200_RLatLon0.09_PT011H.grib2 2026-04-30 20:41 262K
20260430T18Z_MSC_RDPS_GeopotentialHeight_IsbL-0225_RLatLon0.09_PT011H.grib2 2026-04-30 20:41 264K
20260430T18Z_MSC_RDPS_GeopotentialHeight_IsbL-0250_RLatLon0.09_PT011H.grib2 2026-04-30 20:41 265K
20260430T18Z_MSC_RDPS_GeopotentialHeight_IsbL-0275_RLatLon0.09_PT011H.grib2 2026-04-30 20:41 264K
20260430T18Z_MSC_RDPS_GeopotentialHeight_IsbL-0300_RLatLon0.09_PT011H.grib2 2026-04-30 20:41 234K
20260430T18Z_MSC_RDPS_GeopotentialHeight_IsbL-0350_RLatLon0.09_PT011H.grib2 2026-04-30 20:41 230K
20260430T18Z_MSC_RDPS_GeopotentialHeight_IsbL-0400_RLatLon0.09_PT011H.grib2 2026-04-30 20:41 226K
20260430T18Z_MSC_RDPS_GeopotentialHeight_IsbL-0450_RLatLon0.09_PT011H.grib2 2026-04-30 20:41 294K
20260430T18Z_MSC_RDPS_GeopotentialHeight_IsbL-0500_RLatLon0.09_PT011H.grib2 2026-04-30 20:41 288K
20260430T18Z_MSC_RDPS_GeopotentialHeight_IsbL-0550_RLatLon0.09_PT011H.grib2 2026-04-30 20:41 284K
20260430T18Z_MSC_RDPS_GeopotentialHeight_IsbL-0600_RLatLon0.09_PT011H.grib2 2026-04-30 20:41 282K
20260430T18Z_MSC_RDPS_GeopotentialHeight_IsbL-0650_RLatLon0.09_PT011H.grib2 2026-04-30 20:41 252K
20260430T18Z_MSC_RDPS_GeopotentialHeight_IsbL-0700_RLatLon0.09_PT011H.grib2 2026-04-30 20:41 332K
20260430T18Z_MSC_RDPS_GeopotentialHeight_IsbL-0750_RLatLon0.09_PT011H.grib2 2026-04-30 20:41 334K
20260430T18Z_MSC_RDPS_GeopotentialHeight_IsbL-0800_RLatLon0.09_PT011H.grib2 2026-04-30 20:41 341K
20260430T18Z_MSC_RDPS_GeopotentialHeight_IsbL-0850_RLatLon0.09_PT011H.grib2 2026-04-30 20:41 349K
20260430T18Z_MSC_RDPS_GeopotentialHeight_IsbL-0875_RLatLon0.09_PT011H.grib2 2026-04-30 20:41 349K
20260430T18Z_MSC_RDPS_GeopotentialHeight_IsbL-0900_RLatLon0.09_PT011H.grib2 2026-04-30 20:41 355K
20260430T18Z_MSC_RDPS_GeopotentialHeight_IsbL-0925_RLatLon0.09_PT011H.grib2 2026-04-30 20:41 358K
20260430T18Z_MSC_RDPS_GeopotentialHeight_IsbL-0950_RLatLon0.09_PT011H.grib2 2026-04-30 20:41 363K
20260430T18Z_MSC_RDPS_GeopotentialHeight_IsbL-0970_RLatLon0.09_PT011H.grib2 2026-04-30 20:41 368K
20260430T18Z_MSC_RDPS_GeopotentialHeight_IsbL-0985_RLatLon0.09_PT011H.grib2 2026-04-30 20:41 376K
20260430T18Z_MSC_RDPS_GeopotentialHeight_IsbL-1000_RLatLon0.09_PT011H.grib2 2026-04-30 20:41 386K
20260430T18Z_MSC_RDPS_GeopotentialHeight_IsbL-1015_RLatLon0.09_PT011H.grib2 2026-04-30 20:41 399K
20260430T18Z_MSC_RDPS_Humidex_Sfc_RLatLon0.09_PT011H.grib2 2026-04-30 20:41 2.4M
20260430T18Z_MSC_RDPS_IcePellets-Accum1h_Sfc_RLatLon0.09_PT011H.grib2 2026-04-30 20:41 2.4K
20260430T18Z_MSC_RDPS_IcePellets-Accum_Sfc_RLatLon0.09_PT011H.grib2 2026-04-30 20:41 5.2K
20260430T18Z_MSC_RDPS_KIndex_Sfc_RLatLon0.09_PT011H.grib2 2026-04-30 20:41 2.4M
20260430T18Z_MSC_RDPS_LatentHeatNetFlux_Sfc_RLatLon0.09_PT011H.grib2 2026-04-30 20:41 391K
20260430T18Z_MSC_RDPS_LiftedIndex-MU-VT_IsbL-0500_RLatLon0.09_PT011H.grib2 2026-04-30 20:41 2.4M
20260430T18Z_MSC_RDPS_NetLongwaveRadiationFlux-Accum_Sfc_RLatLon0.09_PT011H.grib2 2026-04-30 20:41 602K
20260430T18Z_MSC_RDPS_NetShortwaveRadiationFlux-Accum_Sfc_RLatLon0.09_PT011H.grib2 2026-04-30 20:41 493K
20260430T18Z_MSC_RDPS_PlanetaryBoundaryLayerHeight_Sfc_RLatLon0.09_PT011H.grib2 2026-04-30 20:41 1.1M
20260430T18Z_MSC_RDPS_Precip-Accum1h_Sfc_RLatLon0.09_PT011H.grib2 2026-04-30 20:41 1.1M
20260430T18Z_MSC_RDPS_Precip-Accum_Sfc_RLatLon0.09_PT011H.grib2 2026-04-30 20:41 1.6M
20260430T18Z_MSC_RDPS_PrecipRate_Sfc_RLatLon0.09_PT011H.grib2 2026-04-30 20:41 156K
20260430T18Z_MSC_RDPS_PrecipType-Instant_Sfc_RLatLon0.09_PT011H.grib2 2026-04-30 20:41 554K
20260430T18Z_MSC_RDPS_Pressure-Trend3h_Sfc_RLatLon0.09_PT011H.grib2 2026-04-30 20:41 1.2M
20260430T18Z_MSC_RDPS_Pressure_MSL_RLatLon0.09_PT011H.grib2 2026-04-30 20:41 320K
20260430T18Z_MSC_RDPS_Pressure_PVU-1.5_RLatLon0.09_PT011H.grib2 2026-04-30 20:41 2.3M
20260430T18Z_MSC_RDPS_Pressure_PVU-1_RLatLon0.09_PT011H.grib2 2026-04-30 20:41 2.4M
20260430T18Z_MSC_RDPS_Pressure_PVU-2_RLatLon0.09_PT011H.grib2 2026-04-30 20:41 2.4M
20260430T18Z_MSC_RDPS_Pressure_Sfc_RLatLon0.09_PT011H.grib2 2026-04-30 20:41 499K
20260430T18Z_MSC_RDPS_RadiativeTemp_Sfc_RLatLon0.09_PT011H.grib2 2026-04-30 20:41 298K
20260430T18Z_MSC_RDPS_Rain-Accum1h_Sfc_RLatLon0.09_PT011H.grib2 2026-04-30 20:41 570K
20260430T18Z_MSC_RDPS_Rain-Accum_Sfc_RLatLon0.09_PT011H.grib2 2026-04-30 20:41 1.1M
20260430T18Z_MSC_RDPS_RelativeHumidity_AGL-2m_RLatLon0.09_PT011H.grib2 2026-04-30 20:41 1.0M
20260430T18Z_MSC_RDPS_RelativeHumidity_IsbL-0010_RLatLon0.09_PT011H.grib2 2026-04-30 20:41 638K
20260430T18Z_MSC_RDPS_RelativeHumidity_IsbL-0020_RLatLon0.09_PT011H.grib2 2026-04-30 20:41 677K
20260430T18Z_MSC_RDPS_RelativeHumidity_IsbL-0030_RLatLon0.09_PT011H.grib2 2026-04-30 20:41 598K
20260430T18Z_MSC_RDPS_RelativeHumidity_IsbL-0050_RLatLon0.09_PT011H.grib2 2026-04-30 20:41 309K
20260430T18Z_MSC_RDPS_RelativeHumidity_IsbL-0100_RLatLon0.09_PT011H.grib2 2026-04-30 20:41 283K
20260430T18Z_MSC_RDPS_RelativeHumidity_IsbL-0150_RLatLon0.09_PT011H.grib2 2026-04-30 20:41 407K
20260430T18Z_MSC_RDPS_RelativeHumidity_IsbL-0175_RLatLon0.09_PT011H.grib2 2026-04-30 20:41 474K
20260430T18Z_MSC_RDPS_RelativeHumidity_IsbL-0200_RLatLon0.09_PT011H.grib2 2026-04-30 20:41 557K
20260430T18Z_MSC_RDPS_RelativeHumidity_IsbL-0225_RLatLon0.09_PT011H.grib2 2026-04-30 20:41 627K
20260430T18Z_MSC_RDPS_RelativeHumidity_IsbL-0250_RLatLon0.09_PT011H.grib2 2026-04-30 20:41 699K
20260430T18Z_MSC_RDPS_RelativeHumidity_IsbL-0275_RLatLon0.09_PT011H.grib2 2026-04-30 20:41 721K
20260430T18Z_MSC_RDPS_RelativeHumidity_IsbL-0300_RLatLon0.09_PT011H.grib2 2026-04-30 20:41 764K
20260430T18Z_MSC_RDPS_RelativeHumidity_IsbL-0350_RLatLon0.09_PT011H.grib2 2026-04-30 20:41 781K
20260430T18Z_MSC_RDPS_RelativeHumidity_IsbL-0400_RLatLon0.09_PT011H.grib2 2026-04-30 20:41 795K
20260430T18Z_MSC_RDPS_RelativeHumidity_IsbL-0450_RLatLon0.09_PT011H.grib2 2026-04-30 20:41 796K
20260430T18Z_MSC_RDPS_RelativeHumidity_IsbL-0500_RLatLon0.09_PT011H.grib2 2026-04-30 20:41 804K
20260430T18Z_MSC_RDPS_RelativeHumidity_IsbL-0550_RLatLon0.09_PT011H.grib2 2026-04-30 20:41 828K
20260430T18Z_MSC_RDPS_RelativeHumidity_IsbL-0600_RLatLon0.09_PT011H.grib2 2026-04-30 20:41 853K
20260430T18Z_MSC_RDPS_RelativeHumidity_IsbL-0650_RLatLon0.09_PT011H.grib2 2026-04-30 20:41 872K
20260430T18Z_MSC_RDPS_RelativeHumidity_IsbL-0700_RLatLon0.09_PT011H.grib2 2026-04-30 20:41 894K
20260430T18Z_MSC_RDPS_RelativeHumidity_IsbL-0750_RLatLon0.09_PT011H.grib2 2026-04-30 20:41 930K
20260430T18Z_MSC_RDPS_RelativeHumidity_IsbL-0800_RLatLon0.09_PT011H.grib2 2026-04-30 20:41 1.0M
20260430T18Z_MSC_RDPS_RelativeHumidity_IsbL-0850_RLatLon0.09_PT011H.grib2 2026-04-30 20:41 1.0M
20260430T18Z_MSC_RDPS_RelativeHumidity_IsbL-0875_RLatLon0.09_PT011H.grib2 2026-04-30 20:41 1.0M
20260430T18Z_MSC_RDPS_RelativeHumidity_IsbL-0900_RLatLon0.09_PT011H.grib2 2026-04-30 20:41 1.0M
20260430T18Z_MSC_RDPS_RelativeHumidity_IsbL-0925_RLatLon0.09_PT011H.grib2 2026-04-30 20:41 1.0M
20260430T18Z_MSC_RDPS_RelativeHumidity_IsbL-0950_RLatLon0.09_PT011H.grib2 2026-04-30 20:41 1.1M
20260430T18Z_MSC_RDPS_RelativeHumidity_IsbL-0970_RLatLon0.09_PT011H.grib2 2026-04-30 20:41 1.0M
20260430T18Z_MSC_RDPS_RelativeHumidity_IsbL-0985_RLatLon0.09_PT011H.grib2 2026-04-30 20:41 1.0M
20260430T18Z_MSC_RDPS_RelativeHumidity_IsbL-1000_RLatLon0.09_PT011H.grib2 2026-04-30 20:41 1.0M
20260430T18Z_MSC_RDPS_RelativeHumidity_IsbL-1015_RLatLon0.09_PT011H.grib2 2026-04-30 20:41 1.0M
20260430T18Z_MSC_RDPS_Runoff-Accum_Sfc_RLatLon0.09_PT011H.grib2 2026-04-30 20:41 54K
20260430T18Z_MSC_RDPS_SWEATIndex_Sfc_RLatLon0.09_PT011H.grib2 2026-04-30 20:41 2.4M
20260430T18Z_MSC_RDPS_SeeingIndex_EAtm_RLatLon0.09_PT011H.grib2 2026-04-30 20:41 1.0M
20260430T18Z_MSC_RDPS_SensibleHeatNetFlux_Sfc_RLatLon0.09_PT011H.grib2 2026-04-30 20:41 281K
20260430T18Z_MSC_RDPS_ShowalterIndex_IsbL-0500_RLatLon0.09_PT011H.grib2 2026-04-30 20:41 2.6M
20260430T18Z_MSC_RDPS_SkyTransparencyIndex_EAtm_RLatLon0.09_PT011H.grib2 2026-04-30 20:41 690K
20260430T18Z_MSC_RDPS_Snow-Accum1h_Sfc_RLatLon0.09_PT011H.grib2 2026-04-30 20:41 436K
20260430T18Z_MSC_RDPS_Snow-Accum_Sfc_RLatLon0.09_PT011H.grib2 2026-04-30 20:41 586K
20260430T18Z_MSC_RDPS_SnowDensity_Sfc_RLatLon0.09_PT011H.grib2 2026-04-30 20:41 169K
20260430T18Z_MSC_RDPS_SnowDepth_Sfc_RLatLon0.09_PT011H.grib2 2026-04-30 20:41 667K
20260430T18Z_MSC_RDPS_SoilTemp_DBS-0to10cm_RLatLon0.09_PT011H.grib2 2026-04-30 20:41 212K
20260430T18Z_MSC_RDPS_SoilTemp_Sfc_RLatLon0.09_PT011H.grib2 2026-04-30 20:41 281K
20260430T18Z_MSC_RDPS_SoilVolumetricIceContent_Sfc_RLatLon0.09_PT011H.grib2 2026-04-30 20:41 162K
20260430T18Z_MSC_RDPS_SoilVolumetricWaterContent_DBS-0to10cm_RLatLon0.09_PT011H.grib2 2026-04-30 20:41 268K
20260430T18Z_MSC_RDPS_SoilVolumetricWaterContent_DBS-0to1cm_RLatLon0.09_PT011H.grib2 2026-04-30 20:41 334K
20260430T18Z_MSC_RDPS_SpecificHumidity_AGL-120m_RLatLon0.09_PT011H.grib2 2026-04-30 20:41 479K
20260430T18Z_MSC_RDPS_SpecificHumidity_AGL-2m_RLatLon0.09_PT011H.grib2 2026-04-30 20:41 642K
20260430T18Z_MSC_RDPS_SpecificHumidity_AGL-40m_RLatLon0.09_PT011H.grib2 2026-04-30 20:41 484K
20260430T18Z_MSC_RDPS_SpecificHumidity_AGL-80m_RLatLon0.09_PT011H.grib2 2026-04-30 20:41 480K
20260430T18Z_MSC_RDPS_SpecificHumidity_IsbL-0001_RLatLon0.09_PT011H.grib2 2026-04-30 20:41 388K
20260430T18Z_MSC_RDPS_SpecificHumidity_IsbL-0005_RLatLon0.09_PT011H.grib2 2026-04-30 20:41 361K
20260430T18Z_MSC_RDPS_SpecificHumidity_IsbL-0010_RLatLon0.09_PT011H.grib2 2026-04-30 20:41 394K
20260430T18Z_MSC_RDPS_SpecificHumidity_IsbL-0020_RLatLon0.09_PT011H.grib2 2026-04-30 20:41 385K
20260430T18Z_MSC_RDPS_SpecificHumidity_IsbL-0030_RLatLon0.09_PT011H.grib2 2026-04-30 20:41 370K
20260430T18Z_MSC_RDPS_SpecificHumidity_IsbL-0050_RLatLon0.09_PT011H.grib2 2026-04-30 20:41 455K
20260430T18Z_MSC_RDPS_SpecificHumidity_IsbL-0100_RLatLon0.09_PT011H.grib2 2026-04-30 20:41 452K
20260430T18Z_MSC_RDPS_SpecificHumidity_IsbL-0150_RLatLon0.09_PT011H.grib2 2026-04-30 20:41 452K
20260430T18Z_MSC_RDPS_SpecificHumidity_IsbL-0175_RLatLon0.09_PT011H.grib2 2026-04-30 20:41 534K
20260430T18Z_MSC_RDPS_SpecificHumidity_IsbL-0200_RLatLon0.09_PT011H.grib2 2026-04-30 20:41 450K
20260430T18Z_MSC_RDPS_SpecificHumidity_IsbL-0225_RLatLon0.09_PT011H.grib2 2026-04-30 20:41 455K
20260430T18Z_MSC_RDPS_SpecificHumidity_IsbL-0250_RLatLon0.09_PT011H.grib2 2026-04-30 20:41 563K
20260430T18Z_MSC_RDPS_SpecificHumidity_IsbL-0275_RLatLon0.09_PT011H.grib2 2026-04-30 20:41 476K
20260430T18Z_MSC_RDPS_SpecificHumidity_IsbL-0300_RLatLon0.09_PT011H.grib2 2026-04-30 20:41 575K
20260430T18Z_MSC_RDPS_SpecificHumidity_IsbL-0350_RLatLon0.09_PT011H.grib2 2026-04-30 20:41 540K
20260430T18Z_MSC_RDPS_SpecificHumidity_IsbL-0400_RLatLon0.09_PT011H.grib2 2026-04-30 20:41 522K
20260430T18Z_MSC_RDPS_SpecificHumidity_IsbL-0450_RLatLon0.09_PT011H.grib2 2026-04-30 20:41 571K
20260430T18Z_MSC_RDPS_SpecificHumidity_IsbL-0500_RLatLon0.09_PT011H.grib2 2026-04-30 20:41 503K
20260430T18Z_MSC_RDPS_SpecificHumidity_IsbL-0550_RLatLon0.09_PT011H.grib2 2026-04-30 20:41 561K
20260430T18Z_MSC_RDPS_SpecificHumidity_IsbL-0600_RLatLon0.09_PT011H.grib2 2026-04-30 20:41 636K
20260430T18Z_MSC_RDPS_SpecificHumidity_IsbL-0650_RLatLon0.09_PT011H.grib2 2026-04-30 20:41 555K
20260430T18Z_MSC_RDPS_SpecificHumidity_IsbL-0700_RLatLon0.09_PT011H.grib2 2026-04-30 20:41 598K
20260430T18Z_MSC_RDPS_SpecificHumidity_IsbL-0750_RLatLon0.09_PT011H.grib2 2026-04-30 20:41 649K
20260430T18Z_MSC_RDPS_SpecificHumidity_IsbL-0800_RLatLon0.09_PT011H.grib2 2026-04-30 20:41 722K
20260430T18Z_MSC_RDPS_SpecificHumidity_IsbL-0850_RLatLon0.09_PT011H.grib2 2026-04-30 20:41 788K
20260430T18Z_MSC_RDPS_SpecificHumidity_IsbL-0875_RLatLon0.09_PT011H.grib2 2026-04-30 20:41 814K
20260430T18Z_MSC_RDPS_SpecificHumidity_IsbL-0900_RLatLon0.09_PT011H.grib2 2026-04-30 20:41 828K
20260430T18Z_MSC_RDPS_SpecificHumidity_IsbL-0925_RLatLon0.09_PT011H.grib2 2026-04-30 20:41 832K
20260430T18Z_MSC_RDPS_SpecificHumidity_IsbL-0950_RLatLon0.09_PT011H.grib2 2026-04-30 20:41 834K
20260430T18Z_MSC_RDPS_SpecificHumidity_IsbL-0970_RLatLon0.09_PT011H.grib2 2026-04-30 20:41 821K
20260430T18Z_MSC_RDPS_SpecificHumidity_IsbL-0985_RLatLon0.09_PT011H.grib2 2026-04-30 20:41 671K
20260430T18Z_MSC_RDPS_SpecificHumidity_IsbL-1000_RLatLon0.09_PT011H.grib2 2026-04-30 20:41 661K
20260430T18Z_MSC_RDPS_SpecificHumidity_IsbL-1015_RLatLon0.09_PT011H.grib2 2026-04-30 20:41 650K
20260430T18Z_MSC_RDPS_SpecificHumidity_Sfc_RLatLon0.09_PT011H.grib2 2026-04-30 20:41 291K
20260430T18Z_MSC_RDPS_StormRelativeHelicity_EtaL-10000_RLatLon0.09_PT011H.grib2 2026-04-30 20:41 1.1M
20260430T18Z_MSC_RDPS_StormSeverityIndex_EtaL-10000_RLatLon0.09_PT011H.grib2 2026-04-30 20:41 1.2M
20260430T18Z_MSC_RDPS_Thickness_IsbL-0850to0700_RLatLon0.09_PT011H.grib2 2026-04-30 20:41 176K
20260430T18Z_MSC_RDPS_Thickness_IsbL-1000to0500_RLatLon0.09_PT011H.grib2 2026-04-30 20:41 196K
20260430T18Z_MSC_RDPS_Thickness_IsbL-1000to0850_RLatLon0.09_PT011H.grib2 2026-04-30 20:41 258K
20260430T18Z_MSC_RDPS_TotalCloudCover_Sfc_RLatLon0.09_PT011H.grib2 2026-04-30 20:41 653K
20260430T18Z_MSC_RDPS_TotalTotalsIndex_Sfc_RLatLon0.09_PT011H.grib2 2026-04-30 20:41 2.4M
20260430T18Z_MSC_RDPS_UVIndex-ClearSky_Sfc_RLatLon0.09_PT011H.grib2 2026-04-30 20:41 101K
20260430T18Z_MSC_RDPS_UVIndex_Sfc_RLatLon0.09_PT011H.grib2 2026-04-30 20:41 174K
20260430T18Z_MSC_RDPS_UpwardLongwaveRadiationFlux_NTAtm_RLatLon0.09_PT011H.grib2 2026-04-30 20:41 485K
20260430T18Z_MSC_RDPS_UpwardShortwaveRadiationFlux_NTAtm_RLatLon0.09_PT011H.grib2 2026-04-30 20:41 142K
20260430T18Z_MSC_RDPS_VerticalVelocity_IsbL-0250_RLatLon0.09_PT011H.grib2 2026-04-30 20:41 552K
20260430T18Z_MSC_RDPS_VerticalVelocity_IsbL-0500_RLatLon0.09_PT011H.grib2 2026-04-30 20:41 538K
20260430T18Z_MSC_RDPS_VerticalVelocity_IsbL-0700_RLatLon0.09_PT011H.grib2 2026-04-30 20:41 588K
20260430T18Z_MSC_RDPS_VerticalVelocity_IsbL-0850_RLatLon0.09_PT011H.grib2 2026-04-30 20:41 698K
20260430T18Z_MSC_RDPS_VerticalWindShear_EtaL-6500_RLatLon0.09_PT011H.grib2 2026-04-30 20:41 1.2M
20260430T18Z_MSC_RDPS_WindChill_Sfc_RLatLon0.09_PT011H.grib2 2026-04-30 20:41 1.1M
20260430T18Z_MSC_RDPS_WindDir_AGL-10m_RLatLon0.09_PT011H.grib2 2026-04-30 20:41 970K
20260430T18Z_MSC_RDPS_WindDir_AGL-120m_RLatLon0.09_PT011H.grib2 2026-04-30 20:41 597K
20260430T18Z_MSC_RDPS_WindDir_AGL-40m_RLatLon0.09_PT011H.grib2 2026-04-30 20:41 636K
20260430T18Z_MSC_RDPS_WindDir_AGL-80m_RLatLon0.09_PT011H.grib2 2026-04-30 20:41 612K
20260430T18Z_MSC_RDPS_WindDir_IsbL-0001_RLatLon0.09_PT011H.grib2 2026-04-30 20:41 313K
20260430T18Z_MSC_RDPS_WindDir_IsbL-0005_RLatLon0.09_PT011H.grib2 2026-04-30 20:41 352K
20260430T18Z_MSC_RDPS_WindDir_IsbL-0010_RLatLon0.09_PT011H.grib2 2026-04-30 20:41 374K
20260430T18Z_MSC_RDPS_WindDir_IsbL-0020_RLatLon0.09_PT011H.grib2 2026-04-30 20:41 415K
20260430T18Z_MSC_RDPS_WindDir_IsbL-0030_RLatLon0.09_PT011H.grib2 2026-04-30 20:41 415K
20260430T18Z_MSC_RDPS_WindDir_IsbL-0050_RLatLon0.09_PT011H.grib2 2026-04-30 20:41 412K
20260430T18Z_MSC_RDPS_WindDir_IsbL-0100_RLatLon0.09_PT011H.grib2 2026-04-30 20:41 427K
20260430T18Z_MSC_RDPS_WindDir_IsbL-0150_RLatLon0.09_PT011H.grib2 2026-04-30 20:41 433K
20260430T18Z_MSC_RDPS_WindDir_IsbL-0175_RLatLon0.09_PT011H.grib2 2026-04-30 20:41 454K
20260430T18Z_MSC_RDPS_WindDir_IsbL-0200_RLatLon0.09_PT011H.grib2 2026-04-30 20:41 460K
20260430T18Z_MSC_RDPS_WindDir_IsbL-0225_RLatLon0.09_PT011H.grib2 2026-04-30 20:41 462K
20260430T18Z_MSC_RDPS_WindDir_IsbL-0250_RLatLon0.09_PT011H.grib2 2026-04-30 20:41 461K
20260430T18Z_MSC_RDPS_WindDir_IsbL-0275_RLatLon0.09_PT011H.grib2 2026-04-30 20:41 482K
20260430T18Z_MSC_RDPS_WindDir_IsbL-0300_RLatLon0.09_PT011H.grib2 2026-04-30 20:41 481K
20260430T18Z_MSC_RDPS_WindDir_IsbL-0350_RLatLon0.09_PT011H.grib2 2026-04-30 20:41 495K
20260430T18Z_MSC_RDPS_WindDir_IsbL-0400_RLatLon0.09_PT011H.grib2 2026-04-30 20:41 510K
20260430T18Z_MSC_RDPS_WindDir_IsbL-0450_RLatLon0.09_PT011H.grib2 2026-04-30 20:41 521K
20260430T18Z_MSC_RDPS_WindDir_IsbL-0500_RLatLon0.09_PT011H.grib2 2026-04-30 20:41 537K
20260430T18Z_MSC_RDPS_WindDir_IsbL-0550_RLatLon0.09_PT011H.grib2 2026-04-30 20:41 559K
20260430T18Z_MSC_RDPS_WindDir_IsbL-0600_RLatLon0.09_PT011H.grib2 2026-04-30 20:41 592K
20260430T18Z_MSC_RDPS_WindDir_IsbL-0650_RLatLon0.09_PT011H.grib2 2026-04-30 20:41 638K
20260430T18Z_MSC_RDPS_WindDir_IsbL-0700_RLatLon0.09_PT011H.grib2 2026-04-30 20:41 691K
20260430T18Z_MSC_RDPS_WindDir_IsbL-0750_RLatLon0.09_PT011H.grib2 2026-04-30 20:41 735K
20260430T18Z_MSC_RDPS_WindDir_IsbL-0800_RLatLon0.09_PT011H.grib2 2026-04-30 20:41 795K
20260430T18Z_MSC_RDPS_WindDir_IsbL-0850_RLatLon0.09_PT011H.grib2 2026-04-30 20:41 858K
20260430T18Z_MSC_RDPS_WindDir_IsbL-0875_RLatLon0.09_PT011H.grib2 2026-04-30 20:41 882K
20260430T18Z_MSC_RDPS_WindDir_IsbL-0900_RLatLon0.09_PT011H.grib2 2026-04-30 20:41 897K
20260430T18Z_MSC_RDPS_WindDir_IsbL-0925_RLatLon0.09_PT011H.grib2 2026-04-30 20:41 908K
20260430T18Z_MSC_RDPS_WindDir_IsbL-0950_RLatLon0.09_PT011H.grib2 2026-04-30 20:41 912K
20260430T18Z_MSC_RDPS_WindDir_IsbL-0970_RLatLon0.09_PT011H.grib2 2026-04-30 20:41 918K
20260430T18Z_MSC_RDPS_WindDir_IsbL-0985_RLatLon0.09_PT011H.grib2 2026-04-30 20:41 926K
20260430T18Z_MSC_RDPS_WindDir_IsbL-1000_RLatLon0.09_PT011H.grib2 2026-04-30 20:41 943K
20260430T18Z_MSC_RDPS_WindDir_IsbL-1015_RLatLon0.09_PT011H.grib2 2026-04-30 20:41 962K
20260430T18Z_MSC_RDPS_WindGust-Max_AGL-10m_RLatLon0.09_PT011H.grib2 2026-04-30 20:41 1.0M
20260430T18Z_MSC_RDPS_WindGust-Min_AGL-10m_RLatLon0.09_PT011H.grib2 2026-04-30 20:41 955K
20260430T18Z_MSC_RDPS_WindGust_AGL-10m_RLatLon0.09_PT011H.grib2 2026-04-30 20:41 1.0M
20260430T18Z_MSC_RDPS_WindSpeed_AGL-10m_RLatLon0.09_PT011H.grib2 2026-04-30 20:41 826K
20260430T18Z_MSC_RDPS_WindSpeed_AGL-120m_RLatLon0.09_PT011H.grib2 2026-04-30 20:41 532K
20260430T18Z_MSC_RDPS_WindSpeed_AGL-40m_RLatLon0.09_PT011H.grib2 2026-04-30 20:41 662K
20260430T18Z_MSC_RDPS_WindSpeed_AGL-80m_RLatLon0.09_PT011H.grib2 2026-04-30 20:41 533K
20260430T18Z_MSC_RDPS_WindSpeed_IsbL-0001_RLatLon0.09_PT011H.grib2 2026-04-30 20:41 250K
20260430T18Z_MSC_RDPS_WindSpeed_IsbL-0005_RLatLon0.09_PT011H.grib2 2026-04-30 20:41 375K
20260430T18Z_MSC_RDPS_WindSpeed_IsbL-0010_RLatLon0.09_PT011H.grib2 2026-04-30 20:41 296K
20260430T18Z_MSC_RDPS_WindSpeed_IsbL-0020_RLatLon0.09_PT011H.grib2 2026-04-30 20:41 312K
20260430T18Z_MSC_RDPS_WindSpeed_IsbL-0030_RLatLon0.09_PT011H.grib2 2026-04-30 20:41 315K
20260430T18Z_MSC_RDPS_WindSpeed_IsbL-0050_RLatLon0.09_PT011H.grib2 2026-04-30 20:41 340K
20260430T18Z_MSC_RDPS_WindSpeed_IsbL-0100_RLatLon0.09_PT011H.grib2 2026-04-30 20:41 470K
20260430T18Z_MSC_RDPS_WindSpeed_IsbL-0150_RLatLon0.09_PT011H.grib2 2026-04-30 20:41 382K
20260430T18Z_MSC_RDPS_WindSpeed_IsbL-0175_RLatLon0.09_PT011H.grib2 2026-04-30 20:41 429K
20260430T18Z_MSC_RDPS_WindSpeed_IsbL-0200_RLatLon0.09_PT011H.grib2 2026-04-30 20:41 446K
20260430T18Z_MSC_RDPS_WindSpeed_IsbL-0225_RLatLon0.09_PT011H.grib2 2026-04-30 20:41 452K
20260430T18Z_MSC_RDPS_WindSpeed_IsbL-0250_RLatLon0.09_PT011H.grib2 2026-04-30 20:41 456K
20260430T18Z_MSC_RDPS_WindSpeed_IsbL-0275_RLatLon0.09_PT011H.grib2 2026-04-30 20:41 473K
20260430T18Z_MSC_RDPS_WindSpeed_IsbL-0300_RLatLon0.09_PT011H.grib2 2026-04-30 20:41 468K
20260430T18Z_MSC_RDPS_WindSpeed_IsbL-0350_RLatLon0.09_PT011H.grib2 2026-04-30 20:41 477K
20260430T18Z_MSC_RDPS_WindSpeed_IsbL-0400_RLatLon0.09_PT011H.grib2 2026-04-30 20:41 478K
20260430T18Z_MSC_RDPS_WindSpeed_IsbL-0450_RLatLon0.09_PT011H.grib2 2026-04-30 20:41 477K
20260430T18Z_MSC_RDPS_WindSpeed_IsbL-0500_RLatLon0.09_PT011H.grib2 2026-04-30 20:41 461K
20260430T18Z_MSC_RDPS_WindSpeed_IsbL-0550_RLatLon0.09_PT011H.grib2 2026-04-30 20:41 462K
20260430T18Z_MSC_RDPS_WindSpeed_IsbL-0600_RLatLon0.09_PT011H.grib2 2026-04-30 20:41 471K
20260430T18Z_MSC_RDPS_WindSpeed_IsbL-0650_RLatLon0.09_PT011H.grib2 2026-04-30 20:41 614K
20260430T18Z_MSC_RDPS_WindSpeed_IsbL-0700_RLatLon0.09_PT011H.grib2 2026-04-30 20:41 642K
20260430T18Z_MSC_RDPS_WindSpeed_IsbL-0750_RLatLon0.09_PT011H.grib2 2026-04-30 20:41 670K
20260430T18Z_MSC_RDPS_WindSpeed_IsbL-0800_RLatLon0.09_PT011H.grib2 2026-04-30 20:41 754K
20260430T18Z_MSC_RDPS_WindSpeed_IsbL-0850_RLatLon0.09_PT011H.grib2 2026-04-30 20:41 806K
20260430T18Z_MSC_RDPS_WindSpeed_IsbL-0875_RLatLon0.09_PT011H.grib2 2026-04-30 20:41 824K
20260430T18Z_MSC_RDPS_WindSpeed_IsbL-0900_RLatLon0.09_PT011H.grib2 2026-04-30 20:41 839K
20260430T18Z_MSC_RDPS_WindSpeed_IsbL-0925_RLatLon0.09_PT011H.grib2 2026-04-30 20:41 853K
20260430T18Z_MSC_RDPS_WindSpeed_IsbL-0950_RLatLon0.09_PT011H.grib2 2026-04-30 20:41 857K
20260430T18Z_MSC_RDPS_WindSpeed_IsbL-0970_RLatLon0.09_PT011H.grib2 2026-04-30 20:41 853K
20260430T18Z_MSC_RDPS_WindSpeed_IsbL-0985_RLatLon0.09_PT011H.grib2 2026-04-30 20:41 845K
20260430T18Z_MSC_RDPS_WindSpeed_IsbL-1000_RLatLon0.09_PT011H.grib2 2026-04-30 20:41 837K
20260430T18Z_MSC_RDPS_WindSpeed_IsbL-1015_RLatLon0.09_PT011H.grib2 2026-04-30 20:41 828K
20260430T18Z_MSC_RDPS_WindU_AGL-10m_RLatLon0.09_PT011H.grib2 2026-04-30 20:41 427K
20260430T18Z_MSC_RDPS_WindU_AGL-120m_RLatLon0.09_PT011H.grib2 2026-04-30 20:41 531K
20260430T18Z_MSC_RDPS_WindU_AGL-40m_RLatLon0.09_PT011H.grib2 2026-04-30 20:41 534K
20260430T18Z_MSC_RDPS_WindU_AGL-80m_RLatLon0.09_PT011H.grib2 2026-04-30 20:41 532K
20260430T18Z_MSC_RDPS_WindU_IsbL-0001_RLatLon0.09_PT011H.grib2 2026-04-30 20:41 239K
20260430T18Z_MSC_RDPS_WindU_IsbL-0005_RLatLon0.09_PT011H.grib2 2026-04-30 20:41 280K
20260430T18Z_MSC_RDPS_WindU_IsbL-0010_RLatLon0.09_PT011H.grib2 2026-04-30 20:41 289K
20260430T18Z_MSC_RDPS_WindU_IsbL-0020_RLatLon0.09_PT011H.grib2 2026-04-30 20:41 344K
20260430T18Z_MSC_RDPS_WindU_IsbL-0030_RLatLon0.09_PT011H.grib2 2026-04-30 20:41 305K
20260430T18Z_MSC_RDPS_WindU_IsbL-0050_RLatLon0.09_PT011H.grib2 2026-04-30 20:41 335K
20260430T18Z_MSC_RDPS_WindU_IsbL-0100_RLatLon0.09_PT011H.grib2 2026-04-30 20:41 424K
20260430T18Z_MSC_RDPS_WindU_IsbL-0150_RLatLon0.09_PT011H.grib2 2026-04-30 20:41 399K
20260430T18Z_MSC_RDPS_WindU_IsbL-0175_RLatLon0.09_PT011H.grib2 2026-04-30 20:41 423K
20260430T18Z_MSC_RDPS_WindU_IsbL-0200_RLatLon0.09_PT011H.grib2 2026-04-30 20:41 341K
20260430T18Z_MSC_RDPS_WindU_IsbL-0225_RLatLon0.09_PT011H.grib2 2026-04-30 20:41 345K
20260430T18Z_MSC_RDPS_WindU_IsbL-0250_RLatLon0.09_PT011H.grib2 2026-04-30 20:41 346K
20260430T18Z_MSC_RDPS_WindU_IsbL-0275_RLatLon0.09_PT011H.grib2 2026-04-30 20:41 361K
20260430T18Z_MSC_RDPS_WindU_IsbL-0300_RLatLon0.09_PT011H.grib2 2026-04-30 20:41 355K
20260430T18Z_MSC_RDPS_WindU_IsbL-0350_RLatLon0.09_PT011H.grib2 2026-04-30 20:41 362K
20260430T18Z_MSC_RDPS_WindU_IsbL-0400_RLatLon0.09_PT011H.grib2 2026-04-30 20:41 364K
20260430T18Z_MSC_RDPS_WindU_IsbL-0450_RLatLon0.09_PT011H.grib2 2026-04-30 20:41 466K
20260430T18Z_MSC_RDPS_WindU_IsbL-0500_RLatLon0.09_PT011H.grib2 2026-04-30 20:41 468K
20260430T18Z_MSC_RDPS_WindU_IsbL-0550_RLatLon0.09_PT011H.grib2 2026-04-30 20:41 469K
20260430T18Z_MSC_RDPS_WindU_IsbL-0600_RLatLon0.09_PT011H.grib2 2026-04-30 20:41 477K
20260430T18Z_MSC_RDPS_WindU_IsbL-0650_RLatLon0.09_PT011H.grib2 2026-04-30 20:41 484K
20260430T18Z_MSC_RDPS_WindU_IsbL-0700_RLatLon0.09_PT011H.grib2 2026-04-30 20:41 509K
20260430T18Z_MSC_RDPS_WindU_IsbL-0750_RLatLon0.09_PT011H.grib2 2026-04-30 20:41 534K
20260430T18Z_MSC_RDPS_WindU_IsbL-0800_RLatLon0.09_PT011H.grib2 2026-04-30 20:41 570K
20260430T18Z_MSC_RDPS_WindU_IsbL-0850_RLatLon0.09_PT011H.grib2 2026-04-30 20:41 615K
20260430T18Z_MSC_RDPS_WindU_IsbL-0875_RLatLon0.09_PT011H.grib2 2026-04-30 20:41 630K
20260430T18Z_MSC_RDPS_WindU_IsbL-0900_RLatLon0.09_PT011H.grib2 2026-04-30 20:41 642K
20260430T18Z_MSC_RDPS_WindU_IsbL-0925_RLatLon0.09_PT011H.grib2 2026-04-30 20:41 651K
20260430T18Z_MSC_RDPS_WindU_IsbL-0950_RLatLon0.09_PT011H.grib2 2026-04-30 20:41 652K
20260430T18Z_MSC_RDPS_WindU_IsbL-0970_RLatLon0.09_PT011H.grib2 2026-04-30 20:41 651K
20260430T18Z_MSC_RDPS_WindU_IsbL-0985_RLatLon0.09_PT011H.grib2 2026-04-30 20:41 784K
20260430T18Z_MSC_RDPS_WindU_IsbL-1000_RLatLon0.09_PT011H.grib2 2026-04-30 20:41 778K
20260430T18Z_MSC_RDPS_WindU_IsbL-1015_RLatLon0.09_PT011H.grib2 2026-04-30 20:41 818K
20260430T18Z_MSC_RDPS_WindV_AGL-10m_RLatLon0.09_PT011H.grib2 2026-04-30 20:41 423K
20260430T18Z_MSC_RDPS_WindV_AGL-120m_RLatLon0.09_PT011H.grib2 2026-04-30 20:41 528K
20260430T18Z_MSC_RDPS_WindV_AGL-40m_RLatLon0.09_PT011H.grib2 2026-04-30 20:41 529K
20260430T18Z_MSC_RDPS_WindV_AGL-80m_RLatLon0.09_PT011H.grib2 2026-04-30 20:41 528K
20260430T18Z_MSC_RDPS_WindV_IsbL-0001_RLatLon0.09_PT011H.grib2 2026-04-30 20:41 242K
20260430T18Z_MSC_RDPS_WindV_IsbL-0005_RLatLon0.09_PT011H.grib2 2026-04-30 20:41 281K
20260430T18Z_MSC_RDPS_WindV_IsbL-0010_RLatLon0.09_PT011H.grib2 2026-04-30 20:41 291K
20260430T18Z_MSC_RDPS_WindV_IsbL-0020_RLatLon0.09_PT011H.grib2 2026-04-30 20:41 307K
20260430T18Z_MSC_RDPS_WindV_IsbL-0030_RLatLon0.09_PT011H.grib2 2026-04-30 20:41 308K
20260430T18Z_MSC_RDPS_WindV_IsbL-0050_RLatLon0.09_PT011H.grib2 2026-04-30 20:41 370K
20260430T18Z_MSC_RDPS_WindV_IsbL-0100_RLatLon0.09_PT011H.grib2 2026-04-30 20:41 423K
20260430T18Z_MSC_RDPS_WindV_IsbL-0150_RLatLon0.09_PT011H.grib2 2026-04-30 20:41 395K
20260430T18Z_MSC_RDPS_WindV_IsbL-0175_RLatLon0.09_PT011H.grib2 2026-04-30 20:41 421K
20260430T18Z_MSC_RDPS_WindV_IsbL-0200_RLatLon0.09_PT011H.grib2 2026-04-30 20:41 435K
20260430T18Z_MSC_RDPS_WindV_IsbL-0225_RLatLon0.09_PT011H.grib2 2026-04-30 20:41 440K
20260430T18Z_MSC_RDPS_WindV_IsbL-0250_RLatLon0.09_PT011H.grib2 2026-04-30 20:41 442K
20260430T18Z_MSC_RDPS_WindV_IsbL-0275_RLatLon0.09_PT011H.grib2 2026-04-30 20:41 358K
20260430T18Z_MSC_RDPS_WindV_IsbL-0300_RLatLon0.09_PT011H.grib2 2026-04-30 20:41 353K
20260430T18Z_MSC_RDPS_WindV_IsbL-0350_RLatLon0.09_PT011H.grib2 2026-04-30 20:41 462K
20260430T18Z_MSC_RDPS_WindV_IsbL-0400_RLatLon0.09_PT011H.grib2 2026-04-30 20:41 464K
20260430T18Z_MSC_RDPS_WindV_IsbL-0450_RLatLon0.09_PT011H.grib2 2026-04-30 20:41 463K
20260430T18Z_MSC_RDPS_WindV_IsbL-0500_RLatLon0.09_PT011H.grib2 2026-04-30 20:41 465K
20260430T18Z_MSC_RDPS_WindV_IsbL-0550_RLatLon0.09_PT011H.grib2 2026-04-30 20:41 467K
20260430T18Z_MSC_RDPS_WindV_IsbL-0600_RLatLon0.09_PT011H.grib2 2026-04-30 20:41 476K
20260430T18Z_MSC_RDPS_WindV_IsbL-0650_RLatLon0.09_PT011H.grib2 2026-04-30 20:41 480K
20260430T18Z_MSC_RDPS_WindV_IsbL-0700_RLatLon0.09_PT011H.grib2 2026-04-30 20:41 505K
20260430T18Z_MSC_RDPS_WindV_IsbL-0750_RLatLon0.09_PT011H.grib2 2026-04-30 20:41 530K
20260430T18Z_MSC_RDPS_WindV_IsbL-0800_RLatLon0.09_PT011H.grib2 2026-04-30 20:41 566K
20260430T18Z_MSC_RDPS_WindV_IsbL-0850_RLatLon0.09_PT011H.grib2 2026-04-30 20:41 611K
20260430T18Z_MSC_RDPS_WindV_IsbL-0875_RLatLon0.09_PT011H.grib2 2026-04-30 20:41 627K
20260430T18Z_MSC_RDPS_WindV_IsbL-0900_RLatLon0.09_PT011H.grib2 2026-04-30 20:41 640K
20260430T18Z_MSC_RDPS_WindV_IsbL-0925_RLatLon0.09_PT011H.grib2 2026-04-30 20:41 788K
20260430T18Z_MSC_RDPS_WindV_IsbL-0950_RLatLon0.09_PT011H.grib2 2026-04-30 20:41 789K
20260430T18Z_MSC_RDPS_WindV_IsbL-0970_RLatLon0.09_PT011H.grib2 2026-04-30 20:41 787K
20260430T18Z_MSC_RDPS_WindV_IsbL-0985_RLatLon0.09_PT011H.grib2 2026-04-30 20:41 779K
20260430T18Z_MSC_RDPS_WindV_IsbL-1000_RLatLon0.09_PT011H.grib2 2026-04-30 20:41 818K
20260430T18Z_MSC_RDPS_WindV_IsbL-1015_RLatLon0.09_PT011H.grib2 2026-04-30 20:41 811K